OBJECT AH, 62640

Orbit data source: Space-Track

You're viewing an Uncataloged Satellite

Recently launched and/or uncataloged satellites may have evolving metadata. Metadata may include but not limited to: Owner, Maufacturer, Bus, Motor, and Mission.

OBJECT AH, 62640 is a satellite in SSO that was launched on Tue, 14 Jan 2025 UTC via an FALCON 9 launch vehicle from the Air Force Western Test Range (AFWTR). Unknown objects in Earth's orbit typically refer to objects detected orbiting the Earth but have not yet been identified or cataloged. These objects could be anything from previously untracked satellites, spent rocket stages, debris from satellite collisions, or even natural meteoroids temporarily captured by Earth's gravity.

Loading next visibility...
Identifier
62640, 2025-009AH
Orbit
SSO
Last TLE update
1 day ago
Origin
Unknown
Manufacturer
URUGUS S.A.
Mission
Operational Commercial Imaging
Bus & Motor
NEWSAT V, Unknown motor
Mass
41.5 kg wet, 38.5 kg dry
Launch date (UTC)
2025-01-14 (4 months ago)
Launch vehicle
FALCON 9
Launch site
Air Force Western Test Range (AFWTR)
Object type
Unknown
Shape & HBR
Box, 0.813 m
Radar Cross Section
0.542 m², Medium (>0.1 m² and < 1m²)

Expand to show TLE details & history

TLE from 1 day ago
0 OBJECT AH
1 62640U 25009AH  25139.46693459  .00007146  00000-0  32809-3 0  9993
2 62640  97.4252 220.1493 0000850 240.4683 119.6468 15.20707689 18920
Epoch: 2025-05-19T11:12Z
TLE epoch observation values (Epoch: 2025-05-19T11:12:23.148Z)
Latitude
-0.00001°
Longitude
174.67371°
Altitude
507.085 km
Speed
7.61 km/s
True Right ascension
14h 40m 35s
True Declination
0° 00' 00"
Sunlit
Object was in full shadow at epoch
Visualization orbit readout
Latitude
-14.73795°
Longitude
177.85658°
Altitude
509.997 km
Speed
7.608 km/s
Apparent Right ascension
14h 31m 55s
Apparent Declination
-26° 49' 43"
Sunlit
Object is in full shadow
Visualization observer readout
Local Sidereal Time
02:02:45
Azimuth
332.958° NNW
Elevation
-75.579°
Doppler factor
1
Orbital elements
Apogee altitude
501.255 km
Perigee altitude
500.086 km
Semi-major axis
6,878.807 km
Eccentricity
0.00009
Inclination
97.4252°
RAAN
220.1493°
Arg. of periapsis
240.4683°
True anomaly
Unknown
Mean anomaly
119.6468°
Eccentric anomaly
Unknown
Mean motion
3.80429 °/min
Orbital period
94.63 mins
BSTAR
0.00032809
Loading maneuver chart data...
Loading SW <> Apogee altitude chart data...
Loading historical data...
Loading historical data...
Loading historical data...
Loading historical data...
Loading historical data...
Loading historical data...
Loading historical data...

OBJECT AH Visibility forecast

Observer location: undefined°, undefined°

Span
Click to sort rows by Start time (UTC) header in descending order
Start Az.
Max El. time (UTC)
Max El. Az.
Max El.
End time (UTC)
End Az.
6 mins2025-05-20 17:46:47.882Z32.481° NE2025-05-20 17:49:47.882Z103.826° ESE31.481°2025-05-20 17:52:47.882Z165.946° S
5 mins2025-05-21 05:58:47.882Z210.398° SW2025-05-21 06:00:47.882Z256.539° W26.682°2025-05-21 06:03:47.882Z322.288° NNW
|